Tracking 18840 objects as of 18-November-2017
HD Live streaming from Space Station
objects crossing your sky now

IRIDIUM 113

Track IRIDIUM 113 now!
10-day predictions
IRIDIUM 113 is classified as:


NORAD ID: 42803
Int'l Code: 2017-039A
Perigee: 612.9 km
Apogee: 634.4 km
Inclination: 85.6 °
Period: 97.0 minutes
Semi major axis: 6994 km
RCS: Unknown
Launch date: June 25, 2017
Source: United States (US)
Launch site: AIR FORCE WESTERN TEST RANGE (AFWTR)
aabbcc
Your satellite tracking list
Your tracking list is empty




NASA's NSSDC Master Catalog

Two Line Element Set (TLE):
1 42803U 17039A   17322.19172797  .00000356  00000-0  39132-4 0  9991
2 42803  85.6156 206.6729 0015353  89.5971 270.7011 14.84077565 21556
Source of the keplerian elements: AFSPC